User: anonymous
Location: Steinbach
(49.5170°N, 96.6830°W)
Time: 11:46:58
(UTC-05:00)
Language:

NOSS 3-4 (A) - Orbit

View from above orbital plane
View from above orbital plane
View from above satellite
View from above satellite

Ground track
Ground track

The orbit data is extracted from the following two-line orbital elements,

1 31701U 07027A   14208.89519393 0.00000000  00000-0  00000-0 0    03
2 31701  63.4030 252.6238 0111000  37.4404 322.5596 13.40648571    04
Epoch (UTC): 27 July 2014 21:29:04
Eccentricity: 0.0111000
inclination: 63.4030°
perigee height: 1024 km
apogee height: 1190 km
right ascension of ascending node: 252.6238°
argument of perigee: 37.4404°
revolutions per day: 13.40648571
mean anomaly at epoch: 322.5596°
orbit number at epoch: 0

The dashed part of the orbit path shows where the satellite is in the earth's shadow,  

DLR